Location: Hamilton
(37.7830°S, 175.2830°E)
Time: 18:45:34
(UTC+13:00)

Meteor 1-27 - Pass Details

Date: 24 January 2019
Orbit: 839 x 891 km, 81.2° (Epoch: 17 February)

Event Time Altitude Azimuth Distance (km) Brightness Sun altitude
Rises 21:02:15 0° 352° (N) 3,460 7.2 -5.0°
Reaches altitude 10° 21:04:39 10° 351° (N) 2,536 6.5 -5.4°
Maximum altitude 21:10:28 87° 263° (W) 903 4.4 -6.4°
Drops below altitude 10° 21:16:24 10° 172° (S) 2,590 7.1 -7.4°
Sets 21:18:53 0° 171° (S) 3,538 7.8 -7.9°
